Контролен ТХ Measurements

Back to Overview

Timestamp Temperature Humidity
2/10/2019 4:04:29 AM 4.8 C 65.0%
2/10/2019 3:57:25 AM 4.9 C 65.0%
2/10/2019 3:55:41 AM 4.9 C 65.0%
2/9/2019 11:01:17 PM 5.8 C 64.0%
2/9/2019 10:59:33 PM 5.9 C 64.0%
2/9/2019 10:47:12 PM 5.9 C 64.0%
2/9/2019 10:45:28 PM 6.0 C 64.0%
2/9/2019 10:33:06 PM 6.0 C 63.0%
2/9/2019 10:31:22 PM 6.1 C 63.0%
2/9/2019 9:50:50 PM 6.1 C 63.0%
2/9/2019 9:43:46 PM 6.1 C 63.0%
2/9/2019 9:42:02 PM 6.2 C 63.0%
2/9/2019 9:22:37 PM 6.2 C 63.0%
2/9/2019 9:15:34 PM 6.3 C 63.0%
2/9/2019 9:13:50 PM 6.4 C 63.0%
2/9/2019 8:33:14 PM 6.7 C 63.0%
2/9/2019 8:31:30 PM 6.7 C 63.0%
2/9/2019 8:19:09 PM 6.7 C 63.0%
2/9/2019 8:17:25 PM 6.7 C 63.0%
2/9/2019 7:50:56 PM 6.9 C 62.0%
2/9/2019 7:49:12 PM 7.0 C 62.0%
2/9/2019 7:29:49 PM 7.1 C 62.0%
2/9/2019 7:28:05 PM 7.2 C 62.0%
2/9/2019 7:15:46 PM 7.3 C 62.0%
2/9/2019 7:08:41 PM 7.4 C 62.0%
2/9/2019 7:06:57 PM 7.4 C 62.0%
2/9/2019 6:54:38 PM 7.4 C 61.0%
2/9/2019 6:47:34 PM 7.5 C 61.0%
2/9/2019 6:45:50 PM 7.6 C 61.0%
2/9/2019 6:26:24 PM 7.8 C 61.0%
2/9/2019 6:24:40 PM 7.9 C 61.0%
2/9/2019 6:05:13 PM 8.2 C 60.0%
2/9/2019 5:58:11 PM 8.4 C 60.0%
2/9/2019 5:56:27 PM 8.6 C 60.0%
2/9/2019 5:30:01 PM 9.3 C 59.0%
2/9/2019 5:28:17 PM 9.4 C 59.0%
2/9/2019 4:26:31 PM 11.5 C 54.0%
2/9/2019 4:24:47 PM 12.0 C 54.0%
2/5/2019 11:16:20 PM 3.3 C 72.0%
2/5/2019 11:14:36 PM 3.2 C 72.0%
2/5/2019 11:02:12 PM 3.3 C 72.0%
2/5/2019 11:00:28 PM 3.3 C 72.0%
2/5/2019 2:41:43 PM 3.4 C 71.0%
2/5/2019 2:39:59 PM 3.4 C 71.0%
2/5/2019 1:31:17 PM 3.3 C 71.0%
2/3/2019 4:38:36 PM 3.0 C 73.0%
2/3/2019 4:36:52 PM 3.0 C 73.0%
2/3/2019 3:49:12 PM 2.8 C 73.0%
2/3/2019 3:47:28 PM 2.8 C 73.0%
2/3/2019 2:24:46 PM 3.5 C 72.0%